Location: Bergfeld
(52.0500°N, 11.7833°E)
Time: 19:43:04
(UTC+00:00)

Cosmos-2242 - Pass Details

Date: 17 February 2020
Orbit: 592 x 616 km, 82.5° (Epoch: 07 April)

Event Time Altitude Azimuth Distance (km) Brightness Sun altitude
Exits shadow 04:28:35 27° 318° (NW) 1,183 4.1 -18.5°
Drops below altitude 10° 04:31:19 10° 353° (N) 1,951 5.6 -18.1°
Sets 04:33:46 0° 4° (N) 2,854 6.6 -17.7°
